Location: Unspecified
(0.0000°N, 0.0000°E)
Time: 21:03:09
(UTC+00:00)

FENGYUN 1C DEB - Pass Details

Date: 20 February 2026
Orbit: 775 x 802 km, 98.9° (Epoch: 9 April)

Event Time Altitude Azimuth Distance (km) Brightness Sun altitude
Rises 04:20:44 0° 168° (SSE) 3,202 ? -27.7°
Reaches altitude 10° 04:23:01 10° 168° (SSE) 2,279 ? -27.1°
Maximum altitude 04:28:03 87° 256° (WSW) 763 ? -25.9°
Enters shadow 04:28:25 77° 332° (NNW) 780 ? -25.8°
